Location: Chequamegon National Forest
(46.1070°N, 90.8420°W)
Time: 04:48:45
(UTC-05:00)

Daily predictions for brighter satellites

Satellite Brightness Start Highest point End
(mag) Time Altitude Azimuth Time Altitude Azimuth Time Altitude Azimuth
Cosmos 1733 3.0 00:02:36 10° N 00:06:30 88° W 00:06:45 78° S
Meteor 2-5 Rocket 3.7 00:05:33 41° S 00:07:42 82° E 00:13:31 10° NNE
Cosmos 468 Rocket 4.3 00:06:21 10° NNW 00:11:34 57° ENE 00:13:20 38° ESE
Cosmos 1140 Rocket 4.0 00:08:53 25° SW 00:11:48 56° WNW 00:16:59 10° NNE
CZ-2C R/B 4.3 00:10:52 10° NE 00:14:57 21° E 00:16:07 19° ESE
Cosmos 1814 Rocket 4.4 00:12:43 10° NNW 00:17:57 58° ENE 00:19:45 38° ESE
Meteor 2-1 Rocket 4.3 00:15:00 10° N 00:20:57 80° E 00:22:53 45° SSE
COSMOS 2487 2.6 00:21:24 73° WNW 00:21:24 73° WNW 00:25:00 10° NNE
ALOS 2 2.5 00:23:39 62° SE 00:24:19 80° ENE 00:28:44 10° N
ISS -1.4 00:25:11 10° WNW 00:28:11 32° N 00:31:10 10° ENE
Cosmos 1470 3.7 00:25:25 10° NNW 00:28:59 35° W 00:29:15 34° WSW
Cosmos 1417 Rocket 4.4 00:23:03 10° N 00:29:12 88° W 00:31:19 44° S
Cosmos 2369 4.0 00:25:06 10° NNW 00:30:42 59° ENE 00:33:02 34° SE
Cosmos 1408 Rocket 3.5 00:30:21 64° SE 00:30:53 72° E 00:35:21 10° NNE
Helios 1B 4.5 00:31:00 65° SE 00:31:35 79° ENE 00:35:58 10° N
ATLAS 3B R/B 4.1 00:24:40 10° WSW 00:31:50 41° NW 00:38:45 10° NNE
Cosmos 1553 Rocket 4.0 00:28:12 10° N 00:34:34 78° E 00:36:55 42° SSE
Cosmos 1486 Rocket 4.4 00:34:01 42° SE 00:34:43 45° ESE 00:39:40 10° NNE
NOSS 3-2 (A) 3.5 00:34:42 43° S 00:36:41 65° ESE 00:43:18 10° NE
SL-8 R/B 3.9 00:33:15 10° WNW 00:37:39 51° SW 00:37:39 51° SW
Cosmos 1818 3.6 00:32:31 10° NW 00:38:03 78° NE 00:39:56 42° SE
Meteor 1-16 Rocket 4.4 00:37:03 10° NNW 00:42:34 60° W 00:44:13 43° SSW
Cosmos 1340 3.9 00:43:01 31° W 00:43:35 33° WNW 00:47:05 10° N
Cosmos 405 Rocket 2.7 00:48:48 70° ENE 00:48:48 70° ENE 00:52:26 10° NNE
Helios 1A Rocket 2.8 00:45:09 10° NNE 00:49:13 69° ESE 00:49:20 69° ESE
Lacrosse 5 rocket 3.9 00:46:12 10° NW 00:49:32 22° NNE 00:52:59 10° ENE
CZ-4B R/B 2.1 00:51:14 50° W 00:51:14 50° W 00:54:35 10° NNW
Cosmos 1151 Rocket 4.3 00:48:32 10° N 00:52:20 30° ENE 00:53:18 27° E
Cosmos 1763 Rocket 3.8 00:47:36 10° NNW 00:52:54 63° ENE 00:54:39 40° SE
Cosmos 2278 3.6 00:47:51 10° NNW 00:53:33 85° WSW 00:55:09 49° SSE
Cosmos 1980 Rocket 4.0 00:48:53 10° N 00:53:37 27° NE 00:58:21 10° ESE
Cosmos 1743 Rocket 3.6 00:57:16 62° SE 00:57:41 66° E 01:02:08 10° NNE
S3M 4.1 00:55:07 10° NNW 01:01:19 67° W 01:03:20 43° SSW
Cosmos 2266 Rocket 4.2 01:02:30 41° SSE 01:04:44 65° E 01:11:06 10° NNE
Cosmos 1437 Rocket 4.0 01:04:42 10° N 01:08:16 31° ENE 01:08:56 29° E
Lacrosse 5 2.7 01:04:31 10° NW 01:09:27 49° NNE 01:14:21 10° ESE
Cosmos 1766 Rocket 4.2 01:11:34 42° WSW 01:12:22 48° WNW 01:16:44 10° N
Timation 2 Rocket 4.1 01:10:11 41° SSW 01:12:51 80° ESE 01:19:40 10° NNE
Cosmos 1441 Rocket 4.4 01:13:08 33° E 01:13:12 33° E 01:16:47 10° NNE
CZ-4C R/B 2.2 01:12:00 40° SW 01:14:06 82° NW 01:20:16 10° NE
Cosmos 1697 Rocket 3.3 01:08:59 10° NNW 01:14:33 54° ENE 01:17:37 26° SE
Cosmos 1867 3.6 01:13:52 52° S 01:14:56 63° ESE 01:20:22 10° NE
Cosmos 1500 Rocket 3.5 01:14:59 64° SE 01:15:22 69° E 01:19:41 10° NNE
H-2A R/B 3.5 01:11:58 10° N 01:15:26 32° WNW 01:16:03 30° W
Cosmos 2082 Rocket 2.5 01:14:28 43° SSE 01:15:40 50° ESE 01:21:09 10° NE
Landsat 5 4.4 01:17:29 32° W 01:17:29 32° W 01:20:58 10° NNW
Cosmos 1328 Rocket 3.6 01:15:48 10° NNW 01:20:08 62° W 01:20:30 60° WSW
Cosmos 1354 Rocket 4.2 01:20:08 49° SSE 01:21:16 61° ESE 01:26:31 10° NNE
Cosmos 2221 4.3 01:18:09 10° NW 01:21:17 20° W 01:21:43 20° W
MOS 1-B Rocket 4.4 01:20:11 34° SSE 01:23:54 88° ENE 01:30:35 10° NNW
Cosmos 1833 Rocket 3.2 01:23:37 39° SE 01:24:53 46° ESE 01:30:15 10° NE
Cosmos 1503 Rocket 4.1 01:26:33 50° SSE 01:27:47 66° ESE 01:33:04 10° NNE
Meteor 2-20 4.4 01:27:16 44° SSW 01:29:24 82° W 01:35:38 10° N
BREEZE-M DEB (TANK) 3.7 01:18:01 10° W 01:30:47 69° NNW 01:34:22 10° ENE
BREEZE-M TANK 3.8 01:19:26 10° SW 01:31:57 45° SSE 01:35:31 10° E
CZ-2C R/B 3.3 01:30:16 40° SSE 01:32:19 76° ENE 01:38:04 10° N
Cosmos 841 Rocket 3.5 01:27:06 10° NNW 01:32:21 70° WSW 01:33:31 52° SSW
Cosmos 1515 Rocket 3.7 01:28:04 10° NNW 01:32:27 60° W 01:32:54 56° WSW
Cosmos 2228 Rocket 4.0 01:31:30 10° NNW 01:35:26 33° W 01:35:46 32° W
Cosmos 1726 4.2 01:35:29 10° NNE 01:38:21 21° ENE 01:39:40 17° E
CENTAUR R/B 3.2 01:37:39 32° SSE 01:39:22 38° ESE 01:45:33 10° NE
Cosmos 1674 2.6 01:41:22 70° E 01:41:24 70° E 01:45:09 10° NNE
NOSS 3-2 (C) 3.8 01:39:23 27° WSW 01:42:58 65° NW 01:49:47 10° NE
Cosmos 1656 3.6 01:40:45 10° NNW 01:46:28 72° WSW 01:48:15 44° S
Aureole 1 Rocket 3.5 01:43:06 10° NNW 01:47:34 76° ENE 01:49:58 35° SSE
PSLV R/B 3.9 01:52:42 60° SW 01:53:04 64° WSW 01:57:15 10° NNW
Iridium 2 4.1 01:53:35 48° ESE 01:53:59 51° E 01:57:42 10° NNE
SL-16 R/B 3.9 01:50:23 10° N 01:55:24 31° NE 02:00:22 10° ESE
CZ-2C R/B 2.9 01:50:10 10° N 01:55:40 62° WNW 01:57:38 38° SW
Cosmos 1328 3.8 01:59:04 62° SE 01:59:33 70° E 02:03:33 10° NNE
ASTEX 1 3.4 01:57:13 10° N 02:02:13 80° E 02:03:43 46° S
ISS -1.6 02:02:06 10° WNW 02:05:09 35° NNE 02:08:12 10° E
Cosmos 1805 Rocket 3.7 02:05:21 47° SSE 02:06:24 65° E 02:10:49 10° NNE
Cosmos 2322 Rocket 3.5 02:02:39 10° NNW 02:07:56 39° NE 02:13:09 10° ESE
Cosmos 405 2.9 02:06:51 10° NNW 02:10:27 73° W 02:10:29 73° WSW
Cosmos 1633 Rocket 3.7 02:13:20 35° SE 02:14:45 48° E 02:19:02 10° NNE
Cosmos 1707 Rocket 3.4 02:13:42 10° N 02:18:06 86° WSW 02:19:12 50° S
Cosmos 724 4.4 02:15:39 33° SW 02:18:19 72° NW 02:24:14 10° NNE
Cosmos 332 Rocket 3.7 02:13:37 10° NNW 02:18:28 83° ENE 02:20:35 34° SSE
Cosmos 1666 Rocket 3.6 02:22:15 46° SSE 02:23:27 72° E 02:27:46 10° NNE
Cosmos 2058 2.9 02:27:08 51° SSW 02:28:06 75° W 02:32:17 10° N
Lacrosse 5 rocket 2.1 02:25:16 10° NW 02:29:32 58° NE 02:33:59 10° ESE
Cosmos 1151 Rocket 4.3 02:26:17 10° NNW 02:29:47 25° W 02:30:09 25° W
SL-08 R/B 3.9 02:27:42 19° SE 02:31:01 56° ENE 02:35:51 10° N
Meteor 1-11 4.3 02:28:51 34° S 02:31:33 83° E 02:37:24 10° NNE
Cosmos 2344 4.0 02:27:26 21° WSW 02:32:59 67° NW 02:42:17 10° NE
IRAS Rocket 4.3 02:28:29 10° NNE 02:33:59 68° ESE 02:36:38 31° S
Cosmos 2151 3.8 02:34:33 33° WSW 02:35:34 38° WNW 02:39:34 10° N
Cosmos 1980 Rocket 2.2 02:32:28 10° NNW 02:38:00 58° WSW 02:40:33 31° S
Cosmos 2360 Rocket 4.2 02:33:38 10° N 02:38:26 27° NE 02:43:12 10° ESE
Cosmos 540 Rocket 3.8 02:33:36 10° NNW 02:38:34 48° WSW 02:40:10 36° SSW
CZ-2D R/B 4.5 02:36:58 10° NE 02:39:45 14° E 02:42:32 10° ESE
ERS-2 2.4 02:38:11 10° NNE 02:41:53 60° ESE 02:42:57 41° SSE
Cosmos 1300 3.0 02:40:35 10° NNW 02:44:18 47° W 02:44:50 43° WSW
Cosmos 1437 Rocket 4.4 02:41:28 10° NW 02:44:24 20° W 02:44:24 20° W
NPP 3.9 02:42:38 10° NNE 02:48:01 65° ESE 02:51:03 26° S
SL-16 R/B 4.1 02:42:59 10° SE 02:48:32 35° ENE 02:54:09 10° N
USA 215 3.4 02:43:12 10° ENE 02:49:40 60° SE 02:53:19 27° SSW
Cosmos 1745 Rocket 4.0 02:48:46 29° SSW 02:52:15 74° W 02:58:37 10° N
Lacrosse 5 2.2 02:47:38 10° WNW 02:52:22 41° SW 02:54:01 31° S
Sich 1 3.2 02:53:31 36° SW 02:55:07 61° WNW 02:59:32 10° N
USA 161 3.2 02:54:45 18° ESE 02:55:43 23° ENE 02:57:42 10° NNE
Nadezhda 1 Rocket 4.0 02:50:26 10° NNW 02:56:34 68° W 03:00:14 25° S
Meteor 1-4 Rocket 2.9 02:52:49 10° N 02:56:35 68° ENE 02:58:38 25° SSE
Cosmos 1697 Rocket 3.8 02:53:35 10° NW 02:58:10 26° WSW 02:59:19 24° WSW
Cosmos 2082 Rocket 3.5 02:56:17 16° WSW 03:00:01 30° NW 03:05:00 10° N
Meteor 2-10 4.0 02:55:23 10° N 03:00:38 89° WSW 03:04:30 19° S
Cosmos 1437 3.7 03:02:21 32° W 03:02:55 34° WNW 03:06:02 10° N
CZ-4C R/B 4.2 02:58:57 10° W 03:03:39 25° NNW 03:08:50 10° NNE
Cosmos 1709 Rocket 4.3 02:59:11 18° S 03:03:55 65° E 03:10:07 10° NNE
Cosmos 1833 Rocket 3.9 03:05:17 16° WSW 03:08:59 32° NW 03:14:02 10° NNE
Cosmos 371 Rocket 3.5 03:05:14 10° NNW 03:09:55 50° WSW 03:12:20 26° SSW
Abrixas 3.0 03:08:48 24° W 03:10:27 59° N 03:13:31 10° ENE
Cosmos 1862 Rocket 3.5 03:06:43 10° N 03:11:14 88° W 03:14:12 21° S
Cosmos 1455 2.2 03:07:50 10° N 03:11:40 82° E 03:13:56 23° SSE
PSLV R/B 4.5 03:07:29 10° N 03:11:47 39° WNW 03:13:54 24° WSW
Cosmos 1726 3.2 03:10:35 10° NNW 03:13:45 27° W 03:14:21 26° WSW
ATLAS 5 CENTAUR R/B 3.2 03:13:59 16° SSE 03:17:03 31° ESE 03:21:35 10° NE
H-2A R/B 3.6 03:14:58 22° SSW 03:17:37 29° SSE 03:33:27 10° ESE
IRS-1C 4.2 03:13:13 10° NNE 03:18:36 81° ESE 03:22:20 20° S
Cosmos 968 Rocket 3.6 03:19:20 25° SW 03:22:18 64° WNW 03:27:26 10° NNE
Cosmos 304 Rocket 4.1 03:19:15 10° NNW 03:24:06 67° ENE 03:28:54 10° SSE
Cosmos 2221 Rocket 4.3 03:24:27 10° N 03:28:54 56° ENE 03:33:21 10° SSE
CENTAUR R/B 3.2 03:24:49 16° WSW 03:29:49 52° NW 03:36:46 10° NE
Resurs 1-4 Rocket 3.2 03:28:17 10° NNE 03:33:20 42° E 03:38:20 10° SSE
AQUA 4.0 03:29:08 10° N 03:33:50 58° WNW 03:36:55 21° SW
Cosmos 1626 2.1 03:34:40 24° SSW 03:36:47 68° W 03:40:33 10° N
Cosmos 1869 3.4 03:33:14 10° NNW 03:37:09 59° W 03:39:54 19° S
Cosmos 1869 Rocket 4.4 03:35:11 10° SSE 03:39:23 47° E 03:43:38 10° NNE
SL-16 R/B 2.4 03:34:16 10° NW 03:39:44 49° WSW 03:45:10 10° S
USA 129 3.2 03:41:11 17° E 03:41:30 18° ENE 03:42:34 10° NNE
ISS -3.5 03:38:32 10° WNW 03:41:47 70° SSW 03:45:02 10° SE
Spot 4 Rocket 4.0 03:37:00 10° NNE 03:42:11 86° WNW 03:46:24 16° SSW
Cosmos 923 Rocket 4.1 03:39:33 10° NNW 03:44:43 55° WSW 03:49:48 10° S
Cosmos 2322 Rocket 2.8 03:46:49 10° NW 03:51:56 37° WSW 03:57:01 10° S
SME Rocket 4.4 03:46:31 10° SSE 03:52:37 55° ENE 03:56:56 10° N
OAO 3 Rocket 4.5 03:51:09 17° SSW 03:52:47 21° S 03:56:17 10° SE
UNK 3.8 03:48:55 10° SSE 03:53:29 86° ENE 03:58:06 10° NNW
Cosmos 1680 Rocket 3.5 03:48:55 10° NNW 03:54:04 59° WSW 03:59:09 10° S
Cosmos 2181 Rocket 4.2 03:49:47 10° NNW 03:55:44 53° W 04:01:43 10° SSW
Cosmos 1271 Rocket 4.0 03:52:43 10° NW 03:55:46 23° W 03:57:29 17° SW
ATLAS CENTAUR R/B 2.7 03:52:25 10° NNW 03:57:06 49° NE 04:01:24 10° ESE
Cosmos 1777 Rocket 4.5 03:54:47 16° SW 03:58:51 51° WNW 04:04:02 10° NNE
SL-23 DEB 4.1 03:55:57 10° WNW 03:59:03 58° NNE 04:02:56 10° ESE
Cosmos 2219 Rocket 4.3 03:56:11 10° N 04:01:05 30° NE 04:05:57 10° ESE
EO 1 Del DPAF 3.5 03:59:13 10° S 04:03:02 52° W 04:06:53 10° NNW
Cosmos 1933 3.5 04:02:12 10° NNW 04:06:10 54° W 04:10:04 10° S
Cosmos 1703 Rocket 3.6 04:01:57 10° NNW 04:06:15 58° W 04:10:29 10° S
Lacrosse 5 rocket 2.4 04:04:54 10° WNW 04:08:38 27° SW 04:12:28 10° S
ARIANE 5 R/B 2.6 04:05:41 10° N 04:10:47 69° WNW 04:15:47 10° SSW
IRS-1D 3.7 04:07:29 10° N 04:12:51 75° WNW 04:18:07 10° SSW
MTI 3.9 04:10:32 10° S 04:13:52 63° WSW 04:17:14 10° NNW
Thor Agena Rocket 4.3 04:08:58 10° SSE 04:14:09 59° ENE 04:19:22 10° N
ADEOS 4.3 04:10:01 10° N 04:14:51 39° WNW 04:19:29 11° SW
ERS-2 4.5 04:13:37 10° NW 04:15:13 12° WNW 04:16:50 10° W
Cosmos 2292 Rocket 4.0 04:13:08 14° SW 04:15:22 30° WNW 04:18:40 10° N
MOS 1-B 4.4 04:13:11 10° NNE 04:19:00 88° W 04:24:48 10° SSW
Cosmos 389 Rocket 3.6 04:16:32 10° N 04:20:09 48° ENE 04:23:44 10° SSE
CZ-2D R/B 2.1 04:15:12 10° NNE 04:20:28 81° WNW 04:25:46 10° SSW
Cosmos 2360 Rocket 2.3 04:17:16 10° NW 04:22:46 56° WSW 04:28:15 10° S
Cosmos 1898 Rocket 3.8 04:21:46 10° S 04:26:55 68° ESE 04:32:04 10° NNE
Meteor 1-26 Rocket 4.2 04:23:18 10° NNW 04:28:48 64° W 04:34:14 10° S
Cosmos 2074 Rocket 4.1 04:23:43 10° SSW 04:29:53 65° W 04:36:08 10° N
In-Cosmos 22 Rocket 4.3 04:25:05 10° S 04:30:24 79° E 04:35:50 10° NNE
CZ-4B R/B 3.9 04:25:43 10° NNE 04:31:03 54° E 04:36:27 10° S
SL-16 R/B 2.9 04:26:04 10° S 04:32:02 45° W 04:38:03 10° NNW
USA 215 3.8 04:26:18 10° NE 04:32:39 55° NNW 04:38:59 10° W
Okean 1-7 3.4 04:29:28 10° NNW 04:33:42 47° W 04:37:53 10° SSW
Cosmos 2184 Rocket 4.2 04:28:38 10° SSW 04:34:56 63° WNW 04:41:15 10° N
Cosmos 1937 Rocket 4.1 04:29:49 10° S 04:35:01 58° ESE 04:40:13 10° NNE
Cosmos 2322 4.1 04:32:39 10° NW 04:38:04 44° WSW 04:43:27 10° S
Cosmos 2219 3.4 04:34:07 10° SSW 04:39:50 81° ESE 04:45:38 10° NNE
Meteor 2-10 Rocket 3.9 04:35:25 10° N 04:40:27 69° ENE 04:45:35 10° SSE
Cosmos 2150 Rocket 4.1 04:36:36 10° SSW 04:41:55 87° WNW 04:47:21 10° NNE
Okean O Rocket 1.7 04:41:07 10° NNE 04:45:36 89° WSW 04:49:59 10° SSW
